Weather History for Thedford, NE

Change the Weather History Date:

Monday, October 31, 2011

  Actual Average (KLBF) Record (KLBF)
Temperature  
Mean Temperature 50 °F 43 °F  
Max Temperature 73 °F 58 °F 82 °F (1950)
Min Temperature 26 °F 28 °F 11 °F (1923)
Degree Days  
Heating Degree Days 16 22  
Month to date heating degree days 498  
Since 1 July heating degree days 669  
Cooling Degree Days 0 0  
Month to date cooling degree days 3  
Year to date cooling degree days 768  
Moisture  
Dew Point 25 °F    
Average Humidity 50    
Maximum Humidity 80    
Minimum Humidity 15    
Precipitation  
Precipitation 0.00 in 0.04 in 1.23 in (1987)
Month to date precipitation 1.55  
Year to date precipitation 19.18  
Snow  
Snow 0.00 in 0.10 in 3.40 in (1912)
Month to date snowfall 2.1  
Since 1 July snowfall 2.3  
Since 1 September snowfall 2.3  
Snow Depth -    
Sea Level Pressure  
Sea Level Pressure 29.93 in    
Wind  
Wind Speed 2 mph (WSW)    
Max Wind Speed 18 mph    
Max Gust Speed 22 mph    
Visibility 10 miles    
Events      
T = Trace of Precipitation, MM = Missing Value Source: NWS Daily Summary

Daily Weather History Graph

Daily Weather History Graph

Search for Another Location

Airport:

Trip Planner

Search our weather history database for the weather conditions in past years. The results will help you decide how hot, cold, wet, or windy it might be!

Date:

Astronomy

Oct. 31, 2011 Rise Set
Actual Time 8:13 AM CDT 6:37 PM CDT
Civil Twilight 7:44 AM CDT 7:06 PM CDT
Nautical Twilight 7:11 AM CDT 7:39 PM CDT
Astronomical Twilight 6:39 AM CDT 8:12 PM CDT
Moon 1:23 PM CDT (10/31) 11:14 PM CDT (10/31)
Length of Visible Light 11h 22m
Length of Day
10h 24m
Waxing Crescent, 30% of the Moon is Illuminated
Oct 31
Waxing Crescent
Nov 2
First Quarter
Nov 10
Full
Nov 18
Last Quarter
Nov 25
New

Hourly Weather History & Observations

Time (CDT) Temp. Windchill Dew Point Humidity Pressure Visibility Wind Dir Wind Speed Gust Speed Precip Events Conditions
12:15 AM 32.0 °F - 21.2 °F 64% 30.08 in 10.0 mi Calm Calm - N/A   Clear
12:35 AM 30.2 °F - 21.2 °F 69% 30.08 in 10.0 mi Calm Calm - N/A   Clear
12:55 AM 30.2 °F - 21.2 °F 69% 30.08 in 10.0 mi Calm Calm - N/A   Clear
1:15 AM 32.0 °F - 21.2 °F 64% 30.07 in 10.0 mi Calm Calm - N/A   Clear
1:35 AM 30.2 °F - 21.2 °F 69% 30.07 in 10.0 mi Calm Calm - N/A   Clear
1:55 AM 28.4 °F - 23.0 °F 80% 30.07 in 10.0 mi Calm Calm - N/A   Clear
2:15 AM 30.2 °F - 21.2 °F 69% 30.05 in 10.0 mi Calm Calm - N/A   Clear
2:35 AM 28.4 °F - 21.2 °F 74% 30.05 in 10.0 mi Calm Calm - N/A   Clear
2:55 AM 28.4 °F - 21.2 °F 74% 30.05 in 10.0 mi Calm Calm - N/A   Clear
3:15 AM 28.4 °F - 23.0 °F 80% 30.05 in 10.0 mi Calm Calm - N/A   Clear
3:35 AM 28.4 °F - 21.2 °F 74% 30.04 in 10.0 mi Calm Calm - N/A   Clear
3:55 AM 30.2 °F - 21.2 °F 69% 30.03 in 10.0 mi Calm Calm - N/A   Clear
4:15 AM 28.4 °F - 21.2 °F 74% 30.03 in 10.0 mi Calm Calm - N/A   Clear
4:35 AM 28.4 °F - 21.2 °F 74% 30.02 in 10.0 mi Calm Calm - N/A   Clear
5:15 AM 30.2 °F - 21.2 °F 69% 30.00 in 10.0 mi Calm Calm - N/A   Clear
5:35 AM 26.6 °F - 21.2 °F 80% 30.00 in 10.0 mi Calm Calm - N/A   Clear
5:55 AM 28.4 °F - 21.2 °F 74% 29.99 in 10.0 mi Calm Calm - N/A   Clear
6:15 AM 28.4 °F - 21.2 °F 74% 29.99 in 10.0 mi Calm Calm - N/A   Clear
6:35 AM 28.4 °F - 21.2 °F 74% 29.99 in 10.0 mi Calm Calm - N/A   Clear
6:55 AM 28.4 °F - 21.2 °F 74% 29.98 in 10.0 mi Calm Calm - N/A   Clear
7:15 AM 26.6 °F - 21.2 °F 80% 29.98 in 10.0 mi Calm Calm - N/A   Clear
7:35 AM 28.4 °F - 21.2 °F 74% 29.97 in 10.0 mi Calm Calm - N/A   Clear
7:55 AM 26.6 °F - 21.2 °F 80% 29.97 in 10.0 mi Calm Calm - N/A   Clear
8:15 AM 26.6 °F - 21.2 °F 80% 29.96 in 10.0 mi Calm Calm - N/A   Clear
8:35 AM 28.4 °F - 21.2 °F 74% 29.96 in 10.0 mi Calm Calm - N/A   Clear
8:55 AM 28.4 °F - 23.0 °F 80% 29.96 in 10.0 mi Calm Calm - N/A   Clear
9:15 AM 32.0 °F - 26.6 °F 80% 29.96 in 10.0 mi Calm Calm - N/A   Clear
9:35 AM 35.6 °F - 26.6 °F 70% 29.96 in 10.0 mi Calm Calm - N/A   Clear
9:55 AM 37.4 °F - 30.2 °F 75% 29.96 in 10.0 mi Calm Calm - N/A   Clear
10:15 AM 42.8 °F - 32.0 °F 66% 29.95 in 10.0 mi Calm Calm - N/A   Clear
10:35 AM 46.4 °F - 32.0 °F 57% 29.94 in 10.0 mi Calm Calm - N/A   Clear
10:55 AM 51.8 °F - 32.0 °F 47% 29.94 in 10.0 mi Calm Calm - N/A   Clear
11:15 AM 59.0 °F - 30.2 °F 34% 29.93 in 10.0 mi West 9.2 mph - N/A   Clear
11:35 AM 60.8 °F - 30.2 °F 31% 29.93 in 10.0 mi West 5.8 mph - N/A   Clear
11:55 AM 60.8 °F - 30.2 °F 31% 29.93 in 10.0 mi West 10.4 mph - N/A   Clear
12:15 PM 62.6 °F - 30.2 °F 30% 29.92 in 10.0 mi WSW 6.9 mph - N/A   Clear
12:35 PM 64.4 °F - 30.2 °F 28% 29.91 in 10.0 mi West 5.8 mph - N/A   Clear
12:55 PM 66.2 °F - 30.2 °F 26% 29.90 in 10.0 mi West 4.6 mph - N/A   Clear
1:35 PM 68.0 °F - 28.4 °F 23% 29.89 in 10.0 mi WSW 10.4 mph 17.3 mph N/A   Clear
1:55 PM 69.8 °F - 28.4 °F 21% 29.87 in 10.0 mi WSW 10.4 mph 16.1 mph N/A   Clear
2:15 PM 71.6 °F - 28.4 °F 20% 29.85 in 10.0 mi West 8.1 mph - N/A   Clear
2:35 PM 73.4 °F - 23.0 °F 15% 29.85 in 10.0 mi West 12.7 mph - N/A   Clear
2:55 PM 73.4 °F - 23.0 °F 15% 29.84 in 10.0 mi West 17.3 mph 21.9 mph N/A   Clear
3:15 PM 73.4 °F - 23.0 °F 15% 29.83 in 10.0 mi WSW 18.4 mph - N/A   Clear
3:35 PM 73.4 °F - 23.0 °F 15% 29.83 in 10.0 mi WSW 12.7 mph 17.3 mph N/A   Clear
3:55 PM 71.6 °F - 23.0 °F 16% 29.81 in 10.0 mi West 15.0 mph - N/A   Clear
4:15 PM 71.6 °F - 23.0 °F 16% 29.82 in 10.0 mi West 10.4 mph - N/A   Clear
4:35 PM 71.6 °F - 23.0 °F 16% 29.82 in 10.0 mi West 10.4 mph - N/A   Clear
5:15 PM 71.6 °F - 23.0 °F 16% 29.81 in 10.0 mi West 5.8 mph - N/A   Clear
5:35 PM 69.8 °F - 23.0 °F 17% 29.81 in 10.0 mi WSW 9.2 mph - N/A   Clear
5:55 PM 69.8 °F - 26.6 °F 20% 29.81 in 10.0 mi WSW 8.1 mph - N/A   Clear
6:15 PM 68.0 °F - 26.6 °F 21% 29.81 in 10.0 mi SW 4.6 mph - N/A   Clear
6:35 PM 64.4 °F - 26.6 °F 24% 29.81 in 10.0 mi Calm Calm - N/A   Clear
6:55 PM 60.8 °F - 26.6 °F 27% 29.82 in 10.0 mi Calm Calm - N/A   Clear
7:15 PM 57.2 °F - 26.6 °F 31% 29.83 in 10.0 mi SSW 9.2 mph - N/A   Clear
7:35 PM 59.0 °F - 26.6 °F 29% 29.84 in 10.0 mi SSW 4.6 mph - N/A   Clear
7:55 PM 57.2 °F - 26.6 °F 31% 29.84 in 10.0 mi WSW 3.5 mph - N/A   Clear
8:15 PM 53.6 °F - 26.6 °F 35% 29.84 in 10.0 mi Calm Calm - N/A   Clear
8:35 PM 53.6 °F - 26.6 °F 35% 29.84 in 10.0 mi SSW 6.9 mph - N/A   Clear
9:15 PM 50.0 °F - 26.6 °F 40% 29.83 in 10.0 mi South 5.8 mph - N/A   Clear
9:35 PM 50.0 °F - 26.6 °F 40% 29.83 in 10.0 mi Calm Calm - N/A   Clear
9:55 PM 51.8 °F - 26.6 °F 38% 29.83 in 10.0 mi Calm Calm - N/A   Clear
10:15 PM 46.4 °F - 28.4 °F 50% 29.83 in 10.0 mi Calm Calm - N/A   Clear
10:35 PM 44.6 °F 42.2 °F 28.4 °F 53% 29.84 in 10.0 mi West 4.6 mph - N/A   Clear
10:55 PM 48.2 °F - 26.6 °F 43% 29.83 in 10.0 mi SSW 6.9 mph - N/A   Clear
11:15 PM 50.0 °F - 26.6 °F 40% 29.83 in 10.0 mi SSW 10.4 mph - N/A   Clear
11:35 PM 48.2 °F - 26.6 °F 43% 29.83 in 10.0 mi SW 3.5 mph - N/A   Clear
11:55 PM 46.4 °F - 26.6 °F 46% 29.82 in 10.0 mi Calm Calm - N/A   Clear